• Join FlightAware (Why Join?)
  • Login
  • US Flag GB Flag 
14:54 EDT


 

Airport Tracker/Info


-or-


 

Live Flight TrackerFlight Track Log ✈ N1944E ✈ 19-Jan-2014 ✈ KJAC - KEGE

Flight Track Log - Related Links

Times and Time Zones

All times are in EST time to prevent confusion due to time zone crossing. See the N1944E flight status page for this flight to view local times or setup timezone preferences in your user account.

Time Position Orientation Groundspeed Altitude Reporting Facility
EST Latitude Longitude Course Direction KTS MPH feet Rate Location/Type
16:28 43.5761 -110.7533 279° West 150 173 7,100  Level Salt Lake Center
16:29 43.3370 -110.4574 291° West  Level Estimated
16:29 43.5431 -110.7700 200° South 127 146 8,300  Level Salt Lake Center
16:30 43.3461 -110.5339 279° West  Level FlightAware Approximate
16:30 43.5097 -110.7872 201° Southwest 127 146 9,200  Level Salt Lake Center
16:31 43.3553 -110.6104 279° West  Level FlightAware Approximate
16:31 43.4692 -110.7750 168° South 146 168 10,100  Level Salt Lake Center
16:32 43.3643 -110.6870 279° West  Level FlightAware Approximate
16:32 43.4364 -110.7336 137° Southeast 160 184 11,100  Level Salt Lake Center
16:33 43.3733 -110.7636 279° West  Level FlightAware Approximate
16:33 43.3981 -110.6942 143° Southeast 166 191 12,000  Level Salt Lake Center
16:34 43.3575 -110.6533 144° Southeast 177 204 13,000 960 Climbing Salt Lake Center
16:35 43.3089 -110.5994 141° Southeast 187 215 14,000 780 Climbing Salt Lake Center
16:36 43.2658 -110.5550 143° Southeast 193 222 14,600 720 Climbing Salt Lake Center
16:37 43.2197 -110.5083 144° Southeast 198 228 15,600 1,020 Climbing Salt Lake Center
16:38 43.1783 -110.4650 143° Southeast 198 228 16,700 660 Climbing Salt Lake Center
16:39 43.1297 -110.4094 140° Southeast 203 234 17,000 120 Climbing Salt Lake Center
16:40 43.0828 -110.3633 144° Southeast 214 246 17,000  Level Salt Lake Center
16:41 43.0311 -110.3125 144° Southeast 229 264 17,000  Level Salt Lake Center
16:42 42.9764 -110.2486 139° Southeast 232 267 17,000  Level Salt Lake Center
16:43 42.9286 -110.1964 141° Southeast 231 266 17,000 -60 Level Salt Lake Center
16:44 42.8714 -110.1358 142° Southeast 233 268 16,900  Descending Salt Lake Center
16:45 42.8233 -110.0836 141° Southeast 232 267 17,000  Climbing Salt Lake Center
16:46 42.7736 -110.0336 144° Southeast 232 267 17,000  Level Salt Lake Center
16:47 42.7169 -109.9728 142° Southeast 233 268 17,000  Level Salt Lake Center
16:48 42.6683 -109.9219 142° Southeast 232 267 17,000 -60 Level Salt Lake Center
16:49 42.6119 -109.8614 142° Southeast 232 267 16,900  Descending Salt Lake Center
16:50 42.5636 -109.8097 142° Southeast 230 265 17,000  Climbing Salt Lake Center
16:51 42.5053 -109.7522 144° Southeast 231 266 17,000  Level Salt Lake Center
16:52 42.4564 -109.6997 142° Southeast 233 268 17,000  Level Salt Lake Center
16:53 42.4072 -109.6472 142° Southeast 234 269 17,000  Level Salt Lake Center
16:54 42.3500 -109.5889 143° Southeast 233 268 17,000  Level Salt Lake Center
16:56 42.3008 -109.5367 142° Southeast 233 268 17,000  Level Salt Lake Center
16:57 42.2431 -109.4778 143° Southeast 233 268 17,000  Level Salt Lake Center
16:58 42.1950 -109.4278 142° Southeast 230 265 17,000  Level Salt Lake Center
16:59 42.1478 -109.3783 142° Southeast 227 261 17,000  Level Salt Lake Center
17:00 42.0925 -109.3214 143° Southeast 224 258 17,000  Level Salt Lake Center
17:01 42.0453 -109.2733 143° Southeast 224 258 17,000  Level Salt Lake Center
17:02 41.9892 -109.2164 143° Southeast 225 259 17,000  Level Salt Lake Center
17:03 41.9408 -109.1664 142° Southeast 227 261 17,000  Level Salt Lake Center
17:04 41.8925 -109.1172 143° Southeast 227 261 17,000  Level Salt Lake Center
17:05 41.8372 -109.0592 142° Southeast 227 261 17,000  Level Salt Lake Center
17:06 41.7889 -109.0100 143° Southeast 227 261 17,000  Level Salt Lake Center
17:07 41.7322 -108.9531 143° Southeast 227 261 17,000  Level Salt Lake Center
17:08 41.6833 -108.9050 144° Southeast 227 261 17,000  Level Salt Lake Center
17:09 41.6331 -108.8550 143° Southeast 231 266 17,000  Level Salt Lake Center
17:10 41.5772 -108.7967 142° Southeast 227 261 17,000  Level Salt Lake Center
17:11 41.5281 -108.7472 143° Southeast 229 264 17,000 -60 Level Salt Lake Center
17:12 41.4700 -108.6906 144° Southeast 231 266 16,900  Descending Salt Lake Center
17:13 41.4211 -108.6406 143° Southeast 231 266 17,000  Climbing Salt Lake Center
17:14 41.3725 -108.5897 142° Southeast 231 266 17,000  Level Salt Lake Center
17:15 41.3139 -108.5331 144° Southeast 232 267 17,000  Level Salt Lake Center
17:16 41.2642 -108.4822 142° Southeast 234 269 17,000  Level Salt Lake Center
17:17 41.2069 -108.4247 143° Southeast 233 268 17,000  Level Salt Lake Center
17:18 41.1592 -108.3761 143° Southeast 230 265 17,000  Level Salt Lake Center
17:19 41.1022 -108.3200 143° Southeast 228 262 17,000  Level Salt Lake Center
17:20 41.0517 -108.2722 145° Southeast 229 264 17,000  Level Denver Center
17:21 41.0022 -108.2239 144° Southeast 230 265 17,100  Climbing Denver Center
17:22 40.9453 -108.1681 143° Southeast 228 262 17,100  Level Denver Center
17:23 40.8975 -108.1203 143° Southeast 227 261 17,100  Level Denver Center
17:24 40.8394 -108.0642 144° Southeast 229 264 17,100  Level Denver Center
17:25 40.7906 -108.0175 144° Southeast 227 261 17,100  Level Denver Center
17:26 40.7417 -107.9703 144° Southeast 228 262 17,100  Level Denver Center
17:27 40.6858 -107.9125 142° Southeast 228 262 17,100  Level Denver Center
17:28 40.6372 -107.8667 144° Southeast 226 260 17,100  Level Denver Center
17:29 40.5825 -107.8139 144° Southeast 222 255 17,100  Level Denver Center
17:30 40.5358 -107.7669 143° Southeast 221 254 17,100  Level Denver Center
17:31 40.4825 -107.7161 144° Southeast 214 246 17,100  Level Denver Center
17:32 40.4381 -107.6733 144° Southeast 208 239 17,100  Level Denver Center
17:34 40.3869 -107.6239 144° Southeast 204 235 17,100  Level Denver Center
17:35 40.3433 -107.5817 144° Southeast 203 234 17,100  Level Denver Center
17:36 40.3003 -107.5408 144° Southeast 201 231 17,100  Level Denver Center
17:37 40.2489 -107.4925 144° Southeast 203 234 17,100  Level Denver Center
17:38 40.2058 -107.4514 144° Southeast 201 231 17,100  Level Denver Center
17:39 40.1567 -107.4031 143° Southeast 196 226 17,100  Level Denver Center
17:40 40.1147 -107.3628 144° Southeast 194 223 17,100  Level Denver Center
17:41 40.0647 -107.3156 144° Southeast 197 227 17,100  Level Denver Center
17:42 40.0228 -107.2747 143° Southeast 197 227 17,100  Level Denver Center
17:43 39.9803 -107.2350 144° Southeast 198 228 17,100  Level Denver Center
17:44 39.9369 -107.1939 144° Southeast 195 224 17,100  Level Denver Center
17:45 39.8944 -107.1531 144° Southeast 189 217 17,100 -540 Level Denver Center
17:46 39.8433 -107.1019 142° Southeast 194 223 16,000 -1,260 Descending Denver Center
17:47 39.8003 -107.0647 146° Southeast 187 215 14,500 -1,680 Descending Denver Center
17:48 39.7544 -107.0269 148° Southeast 181 208 12,600 -1,860 Descending Denver Center